Location: Góry Miechowskie
(50.3599°N, 20.1803°E)
Time: 06:31:39
(UTC+00:00)

A-11 Canister half - Pass Details

Date: 17 September 2024
Orbit: 1515 x 1684 km, 47.2° (Epoch: 04 October)

Event Time Altitude Azimuth Distance (km) Brightness Sun altitude
Rises 17:41:30 0° 240° (WSW) 4,731 12.3 -9.3°
Reaches altitude 10° 17:44:38 10° 237° (WSW) 3,729 11.7 -9.8°
Maximum altitude 17:53:48 62° 160° (SSE) 1,685 9.1 -11.2°
Enters shadow 18:02:32 11° 83° (E) 3,581 10.4 -12.5°
Drops below altitude 10° 18:02:50 10° 83° (E) 3,678 - -12.6°
Sets 18:05:54 0° 80° (E) 4,663 - -13.0°
